This demonstration page uses our WeatherBlox Daily Observations layout. Learn more.

Left ArrowRight Arrow

Hourly Observations for February 24, 2016

Temp ( °F °C ) Dew Point ( °F °C ) Humidity (%) Winds ( mph kmh ) Pressure ( in mb ) Visibility ( mi km ) Precip ( " mm )
12:53 am 00:53 Clear 20 -6.7 16 -8.9 85 85 WSW 6 9 30.32 1027 10 16 0.00 0.00
1:53 am 01:53 Clear 18 -7.8 15 -9.4 88 88 W 3 6 30.34 1027 10 16 0.00 0.00
2:53 am 02:53 Clear 16 -8.9 13 -10.6 88 88 WSW 6 9 30.35 1028 10 16 0.00 0.00
3:53 am 03:53 Clear 15 -9.4 12 -11.1 88 88 SSW 9 15 30.36 1028 10 16 0.00 0.00
4:53 am 04:53 Clear 13 -10.6 11 -11.7 92 92 SW 9 15 30.39 1029 10 16 0.00 0.00
5:53 am 05:53 Clear 14 -10 11 -11.7 88 88 SW 9 15 30.40 1030 10 16 0.00 0.00
6:53 am 06:53 Clear 17 -8.3 14 -10 88 88 SW 12 19 30.40 1030 10 16 0.00 0.00
7:53 am 07:53 Sunny 18 -7.8 15 -9.4 88 88 SW 9 15 30.43 1031 10 16 0.00 0.00
8:53 am 08:53 Sunny 23 -5 19 -7.2 85 85 SW 12 19 30.44 1031 10 16 0.00 0.00
9:53 am 09:53 Sunny 29 -1.7 21 -6.1 72 72 SSW 12 19 30.45 1031 10 16 0.00 0.00
10:53 am 10:53 Sunny 34 1.1 21 -6.1 59 59 WSW 12 19 30.45 1031 10 16 0.00 0.00
11:53 am 11:53 Sunny 38 3.3 18 -7.8 44 44 W 12 19 30.43 1030 10 16 0.00 0.00
12:53 pm 12:53 Sunny 40 4.4 13 -10.6 33 33 WNW 8 13 30.40 1030 10 16 0.00 0.00
1:53 pm 13:53 Sunny 39 4 10 -12 30 30 W 7 11 30.36 1028 10 16 0.00 0.00
2:53 pm 14:53 Sunny 42 5.6 11 -11.7 28 28 WNW 6 9 30.38 1029 10 16 0.00 0.00
3:53 pm 15:53 Sunny 41 5 10 -12.2 28 28 WSW 6 9 30.38 1029 10 16 0.00 0.00
4:53 pm 16:53 Sunny 35 1.7 9 -12.8 34 34 W 3 6 30.39 1029 10 16 0.00 0.00
5:53 pm 17:53 Sunny 28 -2.2 10 -12.2 47 47 S 5 7 30.40 1030 10 16 0.00 0.00
6:53 pm 18:53 Clear 26 -3.3 12 -11.1 55 55 SSE 6 9 30.40 1030 10 16 0.00 0.00
7:53 pm 19:53 Clear 28 -2.2 12 -11.1 51 51 VRB 5 7 30.39 1029 10 16 0.00 0.00
8:53 pm 20:53 Clear 27 -2.8 13 -10.6 55 55 NE 6 9 30.38 1029 10 16 0.00 0.00
9:53 pm 21:53 Clear 25 -3.9 13 -10.6 60 60 E 5 7 30.37 1028 10 16 0.00 0.00
10:53 pm 22:53 Clear 22 -5.6 12 -11.1 66 66 ENE 8 13 30.35 1028 10 16 0.00 0.00
11:53 pm 23:53 Clear 23 -5 13 -10.6 65 65 E 5 7 30.34 1027 10 16 0.00 0.00

Powered by AerisWeather